Temperature
8 7 7 8 9 10 11 11 11 12 13 13 12 11 12 13 13 13 13 13 13 13 12 12 12 11 11 11 11 11 11 11 11 11 11 11 11 11 11 11 11 11 11 11
7 6 8 9 9 9 10 10 10 12 13 13 11 11 12 12 12 12 13 13 12 12 12 12 12 11 11 11 11 11 11 11 11 11 11 11 11 11 11 11 11 11 11 11
6 7 9 9 8 8 9 9 9 10 11 12 11 10 11 11 12 12 12 12 12 12 11 11 11 11 10 10 10 10 10 10 10 10 10 10 10 10 10 11 11 11 11 11
6 8 8 8 8 8 8 9 10 10 9 8 10 8 10 11 11 11 11 11 11 11 11 11 11 10 10 10 10 10 10 10 10 10 10 10 10 10 10 10 11 11 10 10
6 7 6 7 7 8 8 9 9 9 8 8 9 8 8 10 10 10 10 10 10 10 10 10 10 10 10 9 9 9 9 9 10 10 10 10 10 10 10 10 10 10 10 10
6 7 6 6 7 8 8 8 8 8 7 6 8 8 8 9 9 9 9 9 9 9 9 9 9 9 9 9 9 9 9 9 9 9 10 9 9 9 9 10 10 9 9 10
5 6 6 6 6 7 7 6 5 6 6 6 9 8 7 8 9 9 9 8 8 8 8 8 8 8 8 8 8 8 8 8 9 9 9 9 9 9 9 9 9 9 9 9
2 3 5 5 5 5 5 5 5 5 6 7 8 7 7 8 8 9 8 8 8 7 7 7 7 7 7 7 7 7 7 8 8 8 8 8 8 8 8 9 9 9 9 9
1 2 5 5 6 5 5 5 6 5 6 6 7 7 7 7 7 7 7 6 6 6 6 6 6 6 6 6 6 7 7 7 7 8 8 8 8 8 8 8 8 8 8 8
1 1 3 4 5 5 4 5 4 4 5 6 6 6 5 5 5 5 5 5 5 5 5 5 5 5 5 5 5 6 6 7 7 7 7 7 7 7 7 7 8 8 8 8
1 -0 1 3 3 3 3 3 3 4 4 5 5 5 6 5 5 5 4 4 4 4 4 4 4 4 4 4 5 5 5 6 6 6 6 7 7 7 7 7 7 7 7 7
0 -0 -0 1 3 3 3 2 2 2 3 4 4 3 5 5 5 4 4 3 3 3 3 3 3 3 3 3 4 4 5 5 5 6 6 6 6 6 6 6 6 7 7 7
-1 -1 -1 0 1 1 1 1 2 2 2 2 3 3 4 3 3 3 2 2 2 2 2 2 2 2 2 2 3 3 4 4 5 5 5 5 5 5 5 5 6 6 6 6
-0 -2 -2 -2 -1 -1 -0 -0 1 1 0 1 2 2 2 2 1 1 1 1 1 1 1 1 1 1 2 2 2 2 3 3 4 4 4 5 5 5 5 5 5 5 6 6
-1 -2 -2 -2 -1 -1 -1 -1 -0 -0 -0 0 1 1 0 1 0 0 0 0 0 -0 -0 0 0 0 1 1 1 2 2 2 3 3 4 4 4 4 4 5 5 5 5 5
-2 -3 -2 -2 -1 -1 -1 -1 -1 -1 -1 -0 -0 -0 -0 -0 -0 -1 -1 -1 -1 -1 -1 -1 -0 -0 -0 0 1 1 1 2 2 3 3 3 3 4 4 4 4 4 4 4
-3 -3 -3 -2 -1 -1 -2 -2 -2 -2 -2 -2 -2 -2 -1 -1 -1 -2 -2 -2 -2 -2 -2 -1 -1 -1 -1 -0 0 1 1 1 2 2 2 2 3 3 3 3 3 4 4 4
-3 -4 -3 -3 -3 -3 -3 -3 -3 -3 -3 -3 -3 -3 -2 -2 -2 -2 -2 -2 -2 -3 -2 -2 -2 -1 -1 -0 -0 0 1 1 1 1 2 2 2 2 2 3 3 3 3 3
-3 -3 -3 -3 -4 -3 -3 -4 -4 -4 -4 -4 -4 -3 -3 -3 -2 -2 -2 -3 -3 -3 -3 -3 -2 -2 -1 -1 -0 -0 0 0 1 1 1 1 1 2 2 2 2 2 2 2
-3 -3 -4 -4 -4 -4 -5 -4 -4 -3 -4 -4 -4 -4 -4 -4 -4 -4 -4 -4 -4 -3 -3 -3 -2 -2 -1 -1 -1 -1 -0 -0 -0 0 0 1 1 1 1 1 2 2 2 2
-4 -5 -5 -5 -4 -5 -5 -5 -4 -5 -6 -5 -5 -5 -5 -5 -5 -5 -5 -4 -4 -4 -3 -3 -3 -2 -2 -2 -1 -1 -1 -1 -1 -1 -0 -0 0 0 1 1 1 1 1 1
-5 -5 -5 -5 -6 -6 -6 -5 -6 -6 -6 -6 -6 -6 -6 -6 -6 -5 -5 -5 -5 -4 -4 -4 -3 -3 -2 -2 -2 -1 -1 -1 -1 -1 -1 -1 -1 -0 -0 0 0 0 0 0
-6 -6 -6 -6 -6 -6 -6 -6 -6 -6 -6 -6 -6 -6 -6 -6 -6 -6 -6 -6 -5 -5 -5 -4 -4 -3 -3 -3 -2 -2 -2 -2 -2 -2 -2 -1 -1 -1 -1 -0 -0 -0 -0 -0
-6 -6 -6 -6 -6 -6 -6 -6 -7 -7 -7 -7 -7 -7 -7 -7 -7 -7 -6 -6 -6 -6 -5 -5 -4 -4 -4 -3 -3 -3 -3 -2 -2 -2 -2 -2 -2 -2 -1 -1 -1 -1 -1 -1
-7 -7 -7 -7 -7 -7 -7 -7 -7 -8 -8 -8 -7 -7 -7 -7 -7 -7 -7 -7 -7 -6 -6 -5 -5 -5 -5 -4 -4 -4 -3 -3 -3 -3 -3 -3 -2 -2 -2 -2 -2 -2 -2 -1
-8 -8 -8 -8 -8 -8 -8 -8 -8 -8 -8 -8 -8 -8 -8 -8 -8 -8 -7 -7 -7 -7 -7 -6 -6 -6 -5 -5 -5 -4 -4 -4 -3 -3 -3 -3 -3 -3 -3 -3 -3 -3 -3 -2
Wind_Speed
7 7 12 14 17 15 12 12 12 10 8 11 12 11 9 7 6 6 7 7 7 7 6 7 7 7 7 6 6 7 7 6 6 5 4 4 3 3 3 3 5 5 5 5
6 12 15 11 11 13 15 15 13 9 6 8 9 11 9 9 8 7 6 6 6 5 5 6 7 7 7 7 7 7 7 7 6 5 5 4 4 3 3 3 4 5 5 5
11 8 8 10 11 12 14 14 13 9 7 8 6 8 9 7 7 6 5 4 4 5 5 6 6 7 7 7 7 7 7 7 7 7 5 5 4 3 3 3 3 3 5 5
8 9 7 9 11 12 12 10 11 11 6 6 7 5 7 7 8 8 6 5 3 3 4 5 5 5 6 6 6 6 7 7 7 7 7 7 6 5 4 4 3 3 5 5
6 6 6 9 11 11 8 7 9 11 9 7 8 6 5 7 7 8 6 5 3 2 3 4 4 4 5 4 5 5 6 6 6 7 7 7 5 4 3 4 5 4 3 4
9 5 4 7 8 8 7 6 7 8 7 10 11 9 4 4 6 6 6 5 4 3 3 3 4 4 4 4 4 4 5 5 6 7 7 6 6 5 6 5 5 4 3 3
7 5 3 4 5 5 4 3 4 6 8 8 8 7 3 0 2 4 6 6 5 4 4 4 4 4 4 4 3 4 4 5 5 6 6 6 6 6 7 6 6 5 4 3
5 5 2 2 4 4 6 7 5 5 6 4 6 7 3 2 5 7 7 6 6 5 5 4 4 4 4 3 3 3 4 3 4 5 5 5 5 5 4 5 5 5 4 4
5 6 6 5 4 3 4 6 6 4 3 3 5 4 3 4 6 7 7 8 6 5 5 5 4 3 3 3 2 2 3 3 3 3 4 4 4 5 5 5 5 4 4 4
5 7 7 6 3 2 3 3 2 3 3 4 5 6 4 4 4 6 6 6 6 6 6 5 4 3 3 3 2 2 2 2 2 2 3 3 4 4 4 5 5 5 5 4
6 5 6 4 1 2 1 1 3 3 3 2 3 2 2 5 6 6 6 6 6 6 5 5 4 4 3 3 3 2 2 2 2 2 2 2 3 3 4 4 5 5 4 5
6 4 5 5 3 4 1 1 2 2 3 3 1 1 5 8 8 7 7 6 6 5 5 5 5 4 4 4 3 3 2 2 1 1 1 2 3 4 4 4 4 5 5 5
6 4 5 3 2 4 3 3 3 2 2 2 2 1 5 8 9 9 8 7 6 6 6 6 5 5 4 4 3 3 2 2 1 1 1 2 3 4 4 4 4 5 5 5
6 2 2 4 5 5 6 8 6 1 1 2 1 1 5 7 8 8 8 7 6 6 6 6 5 5 5 4 3 2 2 2 1 1 1 1 2 3 3 4 4 5 5 5
4 3 4 5 6 5 6 7 6 2 1 1 1 3 4 5 6 6 7 7 7 7 7 7 6 5 5 4 4 3 2 2 1 1 1 1 1 3 3 4 4 5 5 5
4 4 5 5 4 4 6 8 6 5 3 3 3 4 6 6 7 8 8 7 7 7 7 8 7 7 6 5 4 4 3 2 2 1 2 1 2 3 3 4 4 5 5 5
3 3 3 3 5 3 3 6 4 4 4 3 3 4 6 7 7 7 7 7 7 7 8 7 7 7 6 5 4 3 2 1 1 1 2 2 2 3 3 3 4 5 5 5
3 3 2 3 4 0 2 6 7 4 6 8 6 8 7 6 5 5 5 7 8 9 9 8 7 6 6 5 4 3 2 1 1 1 2 2 3 3 3 3 4 4 4 4
2 2 2 1 2 1 3 7 8 4 3 9 9 9 10 10 5 4 7 9 8 8 8 8 7 6 6 5 3 2 1 1 1 1 2 2 3 3 3 4 3 4 4 4
2 1 1 2 1 1 5 10 11 4 2 9 10 9 9 9 5 6 10 11 10 9 8 8 7 6 5 4 3 1 1 1 1 1 1 1 3 3 3 3 3 4 4 4
4 2 1 2 1 1 6 11 8 3 4 10 9 8 7 6 5 8 10 9 9 8 8 8 7 6 4 4 3 1 1 1 1 1 2 2 2 3 3 3 3 4 5 5
4 3 3 2 1 2 8 7 5 4 6 7 8 7 7 7 7 8 9 9 9 9 8 8 6 5 4 4 3 2 2 2 1 2 3 2 2 2 2 4 4 4 5 5
3 3 2 1 1 3 5 4 5 6 7 7 7 7 7 8 8 9 9 9 8 8 8 7 6 6 5 4 3 2 2 2 2 3 3 3 3 2 2 3 4 4 4 4
4 4 1 1 2 5 6 7 8 8 8 8 8 8 7 7 8 9 9 8 8 8 7 7 6 6 6 5 5 3 3 2 3 3 2 2 3 3 2 2 2 3 3 4
4 4 3 1 3 5 6 9 10 10 10 10 10 9 8 8 8 8 8 8 7 7 7 7 6 6 6 6 5 5 4 3 3 2 2 2 2 3 2 2 2 2 1 2
3 2 2 2 4 4 6 8 9 9 10 9 9 10 9 9 9 9 8 7 7 7 7 7 7 6 6 6 5 5 4 3 2 2 2 1 2 2 2 3 3 5 3 4
Wind_Direction
202 216 222 222 225 239 251 247 243 240 222 216 217 224 229 236 232 214 205 200 193 190 180 170 160 155 152 157 161 161 160 159 154 150 152 150 153 142 126 109 126 140 150 154
218 231 238 240 239 244 248 253 253 254 233 224 227 233 229 224 219 211 198 195 193 187 177 169 162 158 158 164 167 162 162 162 159 156 155 155 153 147 143 120 126 145 150 152
233 251 248 242 246 245 241 244 249 253 264 242 233 243 228 220 216 207 201 193 185 182 181 169 160 161 159 163 169 172 168 163 162 154 146 143 131 128 136 151 152 147 151 149
252 259 267 253 250 247 248 249 255 254 248 238 209 243 224 216 205 204 201 188 188 193 177 161 156 153 158 168 166 167 166 163 162 157 156 157 157 163 175 169 161 154 154 154
262 272 264 256 254 251 253 266 256 247 238 249 228 234 229 202 209 201 187 173 165 154 139 138 138 144 143 146 153 161 160 161 161 160 158 160 165 171 156 154 155 163 153 151
264 268 265 268 272 261 261 257 254 243 228 237 220 215 240 213 206 185 173 160 146 138 128 117 109 105 107 117 130 147 160 163 165 165 163 167 172 168 157 162 166 165 158 159
282 258 264 296 287 265 246 212 208 206 210 225 202 201 216 116 98 134 140 132 122 111 112 110 106 105 104 107 128 149 158 167 166 167 170 175 178 175 172 170 171 167 165 169
300 282 265 304 272 256 236 219 213 211 208 215 192 202 172 113 58 68 79 91 96 93 88 91 95 98 101 108 120 148 156 161 166 169 174 176 178 177 175 174 170 172 175 176
320 298 315 305 291 270 249 232 250 268 252 215 189 168 152 82 67 72 69 62 63 73 78 78 78 83 93 94 87 126 150 152 162 166 169 179 183 177 172 169 167 173 174 169
314 299 304 324 308 262 267 275 244 236 232 220 196 188 179 134 106 90 83 75 55 48 54 57 58 61 69 92 81 88 114 138 141 151 167 175 177 174 167 163 168 168 168 163
320 299 303 319 297 310 275 264 271 255 254 237 193 151 46 115 112 96 79 71 62 53 51 49 36 40 48 60 73 72 85 94 105 122 133 145 155 157 156 163 168 166 164 163
334 310 295 290 306 335 338 279 262 233 260 255 235 101 20 57 77 72 65 62 58 50 43 44 33 37 49 50 48 56 65 79 96 109 132 148 149 153 157 163 167 165 162 162
337 324 312 312 341 359 4 344 315 294 298 254 213 156 19 38 48 52 51 50 48 48 43 39 31 31 36 38 33 28 41 46 64 89 111 150 160 164 163 165 165 161 157 157
343 310 283 302 324 332 333 339 337 354 256 272 230 98 11 29 34 32 35 40 40 40 35 33 26 22 20 21 21 9 21 33 45 100 111 153 173 163 159 159 158 157 155 155
344 297 294 300 313 342 352 341 352 15 326 289 351 11 5 17 35 29 27 31 33 28 21 19 13 7 4 2 3 4 8 29 41 94 111 134 143 138 144 146 147 149 147 150
336 303 304 293 304 354 7 0 0 353 339 325 358 356 10 22 26 20 19 22 23 17 9 4 0 355 352 351 353 356 356 15 42 77 89 94 116 121 131 139 139 142 144 145
310 312 306 295 316 327 4 4 17 26 20 1 342 343 7 13 17 11 4 11 6 359 354 351 346 339 335 333 335 332 339 1 44 75 89 94 113 127 132 140 140 141 145 144
288 299 275 297 339 338 79 27 15 27 33 25 17 6 2 355 355 3 10 7 357 347 342 339 333 331 330 327 331 336 354 28 64 75 92 102 108 115 121 125 135 138 135 138
264 273 294 303 296 270 44 7 350 339 3 21 10 4 360 351 345 3 12 359 344 336 332 330 326 322 323 323 323 342 28 35 61 75 86 108 118 119 121 125 129 131 129 127
345 3 300 309 311 358 3 337 328 315 341 8 3 360 358 0 351 328 342 341 335 334 334 332 328 330 331 330 337 33 50 41 43 82 92 96 120 127 128 127 125 124 127 126
353 338 338 314 290 40 357 338 349 31 327 339 347 346 347 344 319 312 325 332 333 332 333 334 333 335 334 342 358 22 40 18 6 63 82 83 99 121 128 124 121 124 126 122
356 350 355 353 355 330 353 3 19 333 327 338 342 343 339 332 327 328 333 336 338 339 340 340 340 339 344 351 360 9 10 358 41 75 79 87 91 104 116 121 121 123 129 129
19 0 336 13 21 352 6 17 2 353 343 342 341 339 336 333 333 334 335 338 341 342 341 344 345 348 354 358 5 11 352 12 67 86 84 89 89 88 108 125 129 131 132 139
5 356 1 10 355 356 4 14 5 2 358 351 348 344 343 339 336 335 336 339 343 345 344 346 353 360 356 357 6 10 12 39 73 89 94 100 105 97 90 109 123 134 143 144
339 347 346 323 340 352 356 358 356 358 1 359 356 354 351 346 341 339 339 343 346 344 345 351 359 0 354 357 4 9 20 42 63 77 86 94 104 110 100 85 80 110 115 151
11 356 342 317 339 326 317 337 349 356 357 355 354 354 353 351 344 343 346 349 348 346 348 353 356 356 353 359 2 2 11 33 65 80 87 95 107 109 111 107 76 55 81 90
Height
1452 1455 1451 1448 1448 1447 1445 1444 1444 1442 1441 1444 1447 1450 1452 1451 1452 1453 1455 1458 1461 1464 1466 1469 1471 1473 1476 1479 1481 1484 1487 1490 1493 1496 1498 1501 1504 1507 1510 1512 1514 1517 1519 1522
1451 1449 1444 1445 1446 1446 1445 1445 1443 1441 1438 1441 1445 1446 1447 1447 1449 1450 1452 1455 1458 1460 1463 1465 1468 1470 1472 1475 1478 1481 1484 1487 1490 1493 1496 1499 1502 1505 1507 1510 1512 1514 1517 1519
1447 1442 1442 1444 1444 1445 1443 1445 1444 1443 1441 1439 1444 1447 1444 1443 1445 1447 1450 1452 1454 1456 1459 1462 1464 1467 1469 1472 1475 1478 1481 1484 1487 1490 1494 1497 1499 1502 1504 1506 1509 1511 1514 1516
1445 1442 1442 1442 1441 1442 1442 1440 1441 1442 1446 1447 1444 1453 1443 1440 1441 1443 1446 1448 1451 1453 1456 1459 1461 1463 1466 1469 1472 1475 1478 1481 1484 1487 1490 1493 1495 1497 1500 1503 1506 1509 1511 1513
1444 1441 1442 1441 1440 1441 1440 1439 1440 1440 1445 1447 1443 1448 1443 1437 1439 1440 1443 1446 1449 1451 1454 1456 1458 1461 1463 1466 1469 1472 1475 1478 1481 1484 1487 1490 1492 1495 1498 1501 1503 1506 1508 1510
1442 1441 1442 1441 1439 1438 1438 1440 1439 1439 1444 1448 1440 1445 1443 1438 1436 1438 1441 1444 1447 1449 1452 1455 1457 1459 1461 1464 1466 1469 1472 1475 1478 1481 1483 1486 1489 1492 1495 1497 1500 1502 1504 1507
1444 1440 1441 1441 1440 1438 1439 1443 1446 1445 1444 1439 1430 1438 1443 1436 1433 1435 1438 1442 1445 1448 1450 1453 1455 1457 1459 1461 1464 1466 1469 1471 1474 1477 1480 1483 1486 1489 1491 1493 1496 1499 1501 1503
1452 1446 1441 1440 1441 1441 1440 1441 1444 1442 1437 1434 1429 1436 1439 1436 1435 1436 1438 1441 1445 1448 1450 1452 1454 1455 1457 1459 1461 1464 1466 1468 1471 1474 1477 1480 1483 1485 1487 1490 1493 1495 1497 1500
1460 1451 1441 1440 1440 1441 1440 1440 1437 1438 1433 1434 1430 1434 1438 1436 1438 1439 1441 1443 1446 1448 1450 1452 1453 1455 1456 1458 1459 1461 1464 1466 1468 1471 1473 1476 1479 1481 1484 1486 1489 1492 1494 1497
1463 1460 1446 1442 1440 1440 1442 1440 1441 1442 1437 1432 1429 1434 1440 1441 1441 1442 1444 1446 1448 1450 1451 1452 1453 1455 1455 1456 1458 1460 1462 1463 1466 1468 1470 1472 1475 1478 1480 1483 1485 1488 1491 1494
1464 1464 1453 1446 1445 1444 1444 1445 1443 1441 1438 1436 1435 1445 1438 1439 1440 1443 1446 1448 1450 1451 1452 1452 1453 1454 1455 1455 1456 1458 1460 1461 1463 1465 1467 1469 1472 1474 1477 1480 1482 1485 1487 1490
1467 1465 1461 1451 1446 1445 1445 1447 1447 1449 1444 1439 1440 1451 1441 1440 1442 1445 1447 1449 1451 1452 1453 1453 1453 1454 1454 1455 1455 1456 1458 1459 1461 1462 1464 1467 1469 1471 1474 1476 1479 1481 1484 1487
1470 1470 1467 1455 1453 1450 1450 1450 1449 1449 1448 1445 1446 1453 1445 1445 1446 1449 1450 1451 1452 1453 1453 1453 1453 1454 1454 1454 1454 1455 1456 1457 1458 1460 1461 1463 1466 1468 1470 1473 1475 1478 1481 1483
1471 1472 1473 1471 1465 1460 1458 1456 1452 1453 1454 1450 1449 1452 1452 1451 1452 1452 1453 1453 1453 1454 1454 1454 1454 1454 1454 1454 1454 1454 1454 1455 1456 1457 1459 1461 1463 1465 1467 1469 1472 1474 1477 1480
1472 1474 1470 1467 1464 1461 1460 1459 1456 1456 1457 1457 1454 1454 1457 1457 1456 1456 1456 1455 1455 1455 1455 1455 1454 1454 1453 1453 1453 1453 1453 1454 1454 1455 1456 1458 1460 1462 1464 1466 1468 1471 1474 1477
1474 1474 1471 1467 1462 1460 1462 1461 1460 1460 1460 1459 1458 1460 1460 1459 1459 1458 1457 1456 1456 1456 1455 1455 1454 1453 1452 1452 1452 1451 1451 1452 1453 1453 1454 1455 1457 1459 1461 1463 1466 1468 1471 1473
1476 1476 1473 1468 1461 1460 1467 1467 1465 1465 1465 1464 1465 1466 1463 1461 1461 1460 1459 1458 1458 1457 1456 1455 1454 1453 1452 1451 1451 1450 1450 1450 1451 1451 1452 1453 1455 1456 1458 1461 1463 1465 1468 1470
1476 1475 1473 1470 1468 1475 1475 1470 1469 1468 1468 1468 1467 1467 1465 1464 1462 1461 1460 1459 1458 1457 1455 1454 1453 1451 1450 1449 1449 1448 1448 1449 1449 1449 1450 1451 1452 1454 1456 1458 1460 1462 1465 1467
1474 1474 1474 1473 1474 1471 1473 1474 1473 1471 1470 1471 1469 1467 1465 1463 1460 1459 1460 1459 1458 1457 1455 1453 1451 1449 1448 1447 1446 1446 1446 1446 1447 1447 1448 1449 1450 1452 1453 1455 1457 1459 1462 1464
1474 1475 1477 1476 1476 1478 1483 1477 1472 1471 1472 1472 1470 1469 1467 1464 1463 1462 1460 1458 1456 1454 1453 1450 1449 1447 1445 1444 1444 1444 1444 1444 1445 1445 1446 1447 1448 1450 1451 1453 1455 1457 1459 1461
1480 1479 1480 1479 1480 1483 1485 1478 1472 1479 1481 1475 1473 1471 1469 1467 1468 1464 1460 1457 1455 1453 1450 1448 1446 1445 1444 1443 1442 1441 1442 1442 1443 1444 1444 1445 1446 1448 1449 1451 1453 1455 1457 1459
1487 1486 1485 1484 1487 1491 1485 1481 1483 1484 1479 1476 1473 1471 1469 1467 1464 1462 1459 1456 1453 1451 1448 1447 1444 1443 1442 1441 1440 1439 1439 1440 1441 1441 1442 1443 1444 1446 1447 1449 1450 1453 1455 1457
1491 1492 1490 1491 1494 1490 1487 1486 1484 1482 1479 1476 1473 1471 1469 1466 1463 1460 1458 1455 1452 1450 1447 1445 1443 1441 1440 1439 1438 1437 1438 1438 1439 1439 1440 1441 1443 1444 1445 1447 1448 1450 1453 1454
1493 1491 1490 1491 1490 1489 1488 1486 1484 1481 1478 1476 1473 1470 1468 1465 1462 1459 1457 1454 1452 1449 1446 1444 1442 1440 1438 1438 1437 1436 1436 1437 1437 1437 1438 1440 1441 1442 1443 1445 1447 1448 1450 1452
1497 1494 1493 1492 1491 1490 1488 1486 1484 1481 1478 1474 1472 1470 1467 1464 1461 1459 1456 1454 1451 1449 1446 1444 1441 1439 1438 1437 1436 1436 1435 1435 1435 1436 1437 1438 1439 1440 1442 1443 1445 1447 1449 1451
1498 1499 1498 1496 1494 1493 1490 1487 1484 1481 1478 1475 1472 1469 1467 1464 1461 1458 1456 1453 1451 1448 1446 1443 1441 1439 1438 1437 1435 1435 1435 1435 1435 1435 1436 1437 1438 1439 1440 1441 1443 1445 1448 1450